TimePDT,TemperatureF,Dew PointF,Humidity,Sea Level PressureIn,VisibilityMPH,Wind Direction,Wind SpeedMPH,Gust SpeedMPH,PrecipitationIn,Events,Conditions,WindDirDegrees,DateUTC
12:53 AM,53.1,41.0,64,30.04,10.0,NNW,11.5,21.9,N/A,,Clear,330,2013-03-17 07:53:00
1:53 AM,51.1,41.0,68,30.05,10.0,WNW,11.5,-,N/A,,Clear,300,2013-03-17 08:53:00
2:53 AM,50.0,41.0,71,30.05,10.0,North,3.5,-,N/A,,Clear,350,2013-03-17 09:53:00
3:53 AM,48.9,39.9,71,30.05,10.0,NW,9.2,-,N/A,,Clear,320,2013-03-17 10:53:00
4:53 AM,43.0,37.9,82,30.04,10.0,NE,6.9,-,N/A,,Clear,50,2013-03-17 11:53:00
5:53 AM,39.9,37.0,89,30.06,10.0,NNE,4.6,-,N/A,,Clear,30,2013-03-17 12:53:00
6:53 AM,37.9,35.1,89,30.06,10.0,NE,4.6,-,N/A,,Clear,50,2013-03-17 13:53:00
7:53 AM,41.0,37.0,86,30.08,10.0,ENE,6.9,-,N/A,,Clear,70,2013-03-17 14:53:00
8:53 AM,48.0,39.9,74,30.09,10.0,ENE,3.5,-,N/A,,Clear,60,2013-03-17 15:53:00
9:53 AM,53.1,41.0,64,30.10,10.0,Variable,3.5,-,N/A,,Clear,0,2013-03-17 16:53:00
10:53 AM,57.9,41.0,53,30.10,10.0,Calm,Calm,-,N/A,,Clear,0,2013-03-17 17:53:00
11:53 AM,64.0,39.9,41,30.08,10.0,Variable,3.5,-,N/A,,Clear,0,2013-03-17 18:53:00
12:53 PM,66.9,37.9,34,30.06,10.0,Calm,Calm,-,N/A,,Clear,0,2013-03-17 19:53:00
1:53 PM,71.1,36.0,28,30.03,10.0,Variable,3.5,-,N/A,,Clear,0,2013-03-17 20:53:00
2:53 PM,73.9,35.1,24,30.01,10.0,West,4.6,-,N/A,,Clear,280,2013-03-17 21:53:00
3:53 PM,75.0,34.0,22,29.99,10.0,NW,5.8,-,N/A,,Clear,320,2013-03-17 22:53:00
4:53 PM,77.0,36.0,23,29.98,10.0,NNW,8.1,-,N/A,,Clear,330,2013-03-17 23:53:00
5:53 PM,75.9,28.0,17,29.97,10.0,NW,8.1,-,N/A,,Clear,320,2013-03-18 00:53:00
6:53 PM,71.1,32.0,24,29.99,10.0,NNW,13.8,-,N/A,,Clear,340,2013-03-18 01:53:00
7:53 PM,62.1,37.9,41,30.01,10.0,NW,6.9,-,N/A,,Clear,310,2013-03-18 02:53:00
8:53 PM,55.9,39.9,55,30.02,10.0,NW,15.0,24.2,N/A,,Clear,310,2013-03-18 03:53:00
9:53 PM,52.0,37.9,59,30.04,10.0,NW,15.0,-,N/A,,Clear,310,2013-03-18 04:53:00
10:53 PM,50.0,39.0,66,30.06,10.0,NNW,11.5,-,N/A,,Clear,330,2013-03-18 05:53:00
11:53 PM,48.0,37.9,68,30.06,10.0,NW,8.1,-,N/A,,Clear,320,2013-03-18 06:53:00